Location: Schommer Observatory
(40.5200°N, 74.4500°W)
Time: 16:35:20
(UTC-04:00)

Vanguard 2 - Visible Passes

Search period start: 22 July 2018 00:00
Search period end: 01 August 2018 00:00
Orbit: 553 x 2939 km, 32.9° (Epoch: 22 July)

Date Brightness Start Highest point End Pass type
(mag) Time Alt. Az. Time Alt. Az. Time Alt. Az.
22 Jul 10.3 00:02:46 10° W 00:18:49 43° SSW 00:22:16 39° S visible
22 Jul 11.3 02:19:32 10° W 02:23:36 14° WSW 02:23:36 14° WSW visible
22 Jul 10.4 22:08:42 10° W 22:25:23 60° SSW 22:37:00 24° SE visible
23 Jul 10.5 00:21:24 10° W 00:36:29 36° SW 00:38:21 35° SSW visible
23 Jul 10.5 22:26:57 10° W 22:43:24 54° SSW 22:53:08 29° SE visible
24 Jul 10.8 00:40:19 10° W 00:54:02 29° SW 00:54:29 29° SW visible
24 Jul 10.5 20:34:16 10° W 20:49:19 65° S 21:06:52 10° ESE visible
24 Jul 10.5 22:45:17 10° W 23:01:20 48° SSW 23:09:19 32° SSE visible
25 Jul 11.1 00:59:44 10° W 01:10:41 22° SW 01:10:41 22° SW visible
25 Jul 10.5 20:52:22 10° W 21:07:28 62° SSW 21:24:12 12° ESE visible
25 Jul 10.6 23:03:44 10° W 23:19:10 41° SSW 23:25:33 32° S visible
26 Jul 11.3 01:20:10 10° WSW 01:26:55 16° SW 01:26:55 16° SW visible
26 Jul 10.5 21:10:32 10° W 21:25:34 57° SSW 21:40:29 16° SE visible
26 Jul 10.8 23:22:23 10° W 23:36:53 34° SW 23:41:50 30° S visible
27 Jul 10.6 21:28:45 10° W 21:43:36 51° SSW 21:56:49 19° SE visible
27 Jul 11.0 23:41:23 10° W 23:54:32 27° SW 23:58:11 25° SSW visible
28 Jul 10.7 21:47:04 10° W 22:01:35 45° SSW 22:13:12 21° SSE visible
29 Jul 11.2 00:00:58 10° W 00:12:08 21° SW 00:14:35 20° SSW visible
29 Jul 10.9 22:05:32 10° W 22:19:28 38° SSW 22:29:39 22° SSE visible
30 Jul 11.4 00:21:50 10° WSW 00:29:41 15° SW 00:31:02 14° SW visible
30 Jul 11.0 22:24:15 10° W 22:37:18 31° SW 22:46:10 21° S visible
31 Jul 10.7 20:31:22 10° W 20:44:07 47° SSW 21:00:35 10° SE visible
31 Jul 11.2 22:43:23 10° W 22:55:04 24° SW 23:02:45 18° S visible
